Location: ??????
(42.0089°N, 44.3281°E)
Time: 17:28:34
(UTC+00:00)

USA 267 - Pass Details

Date: 07 June 2022
Orbit: 1101 x 1106 km, 123.0° (Epoch: 28 June)

Event Time Altitude Azimuth Distance (km) Brightness Sun altitude
Rises 19:00:02 0° 58° (ENE) 3,922 6.2 -19.3°
Reaches altitude 10° 19:03:00 10° 45° (NE) 2,964 5.7 -19.6°
Maximum altitude 19:07:58 24° 356° (N) 2,112 5.5 -20.1°
Drops below altitude 10° 19:12:56 10° 306° (NW) 2,965 6.4 -20.5°
Sets 19:15:55 0° 293° (WNW) 3,923 6.9 -20.7°
